Ephrata, WA
on Sunday, November 4, 2012

Sunday
Previous Day Next Day
Daily Summary
 ActualAverageRecord
Temperature
Mean Temperature °F 42°F  
Max Temperature 58°F 51°F 69°F (2007)
Min Temperature 46°F 32°F 3°F (1973)
Degree Days
Heating Degree Days 13 23  
Month to date heating degree days 61 90  
Since 1 July heating degree days 556 671  
Cooling Degree Days 0 0  
Month to date cooling degree days 0 0  
Year to date cooling degree days 837 772  
Growing Degree Days2 (Base °F )  
Moisture
Dew Point 47°F   
Average Humidity 83    
Maximum Humidity 93    
Minimum Humidity 72    
Precipitation
Precipitation 0.00 in 0.03 in 0.25 in (1973)
Month to date precipitation 0.05 0.11  
Year to date precipitation 5.91 5.66  
Wind
Wind Speed 4 mph   
Max Wind Speed 9 mph   
Max Gust Speed 12 mph   
Visibility 9 miles   
Events     

Key: T is trace of precipitation, MM is missing value
Source: NWS Daily Summary
Time(PST)TemperatureDew PointHumidity Pressure Visibility Wind DirectionWind SpeedGust SpeedPrecipitationEvents Conditions
12:53 AM 50.0°F 48.0°F 93% 30.17 in 7.0 miles Calm Calm - N/A   Mostly Cloudy
1:53 AM 48.9°F 46.9°F 93% 30.18 in 7.0 miles Calm Calm - N/A   Mostly Cloudy
1:53 AM 48.9°F 46.9°F 93% 30.18 in 7.0 miles West 3.5 mph - N/A   Overcast
2:53 AM 48.9°F 46.0°F 90% 30.18 in 10.0 miles SW 3.5 mph - N/A   Overcast
3:53 AM 48.0°F 46.0°F 93% 30.20 in 7.0 miles East 5.8 mph - N/A   Overcast
4:53 AM 48.9°F 46.0°F 90% 30.20 in 8.0 miles Calm Calm - N/A   Overcast
5:53 AM 46.9°F 45.0°F 93% 30.22 in 8.0 miles North 8.1 mph - N/A   Overcast
6:53 AM 48.9°F 46.9°F 93% 30.25 in 6.0 miles North 5.8 mph - N/A   Overcast
7:53 AM 50.0°F 46.9°F 89% 30.27 in 7.0 miles NNE 5.8 mph - N/A   Mostly Cloudy
8:53 AM 51.1°F 46.9°F 86% 30.27 in 10.0 miles NE 4.6 mph - N/A   Clear
9:53 AM 52.0°F 46.9°F 83% 30.28 in 10.0 miles North 5.8 mph - N/A   Clear
10:53 AM 53.1°F 48.0°F 83% 30.28 in 10.0 miles NE 5.8 mph - N/A   Clear
11:53 AM 54.0°F 48.0°F 80% 30.28 in 10.0 miles North 6.9 mph - N/A   Clear
12:53 PM 55.9°F 48.9°F 77% 30.27 in 10.0 miles North 4.6 mph - N/A   Clear
1:53 PM 55.9°F 48.9°F 77% 30.27 in 10.0 miles North 5.8 mph - N/A   Clear
2:53 PM 57.9°F 48.9°F 72% 30.27 in 10.0 miles Calm Calm - N/A   Clear
3:53 PM 57.0°F 50.0°F 77% 30.27 in 10.0 miles NNE 3.5 mph - N/A   Clear
4:53 PM 54.0°F 48.9°F 83% 30.26 in 10.0 miles NW 4.6 mph - N/A   Clear
5:53 PM 52.0°F 48.0°F 86% 30.25 in 8.0 miles Calm Calm - N/A   Clear
6:53 PM 50.0°F 48.0°F 93% 30.26 in 10.0 miles NNE 3.5 mph - N/A   Clear
7:53 PM 50.0°F 48.0°F 93% 30.25 in 10.0 miles NNE 3.5 mph - N/A   Clear
8:53 PM 48.0°F 46.9°F 96% 30.24 in 10.0 miles Calm Calm - N/A   Clear
9:53 PM 48.0°F 46.0°F 93% 30.25 in 8.0 miles NNE 4.6 mph - N/A   Clear
10:53 PM 48.0°F 45.0°F 89% 30.23 in 8.0 miles NNW 4.6 mph - N/A   Clear
Moon Phase
Nov. 04 Nov. 06 Nov. 13 Nov. 20 Nov. 28
Sunrise:06:46 AM (PST) Moon Rise:09:15 PM (PST)11/4
Sunset:04:35 PM (PST) Moon Set:11:37 AM (PST)11/4

Copyright © 2014 The Weather Underground, Inc.